Location: Cless�
(46.4157°N, 4.8156°E)
Time: 01:56:46
(UTC+00:00)

Daily predictions for brighter satellites

Satellite Brightness Start Highest point End
(mag) Time Altitude Azimuth Time Altitude Azimuth Time Altitude Azimuth
Cosmos 2278 Rocket 4.4 03:36:40 17° SE 03:36:40 17° SE 03:37:58 10° SE
Cosmos 2219 Rocket 4.2 03:41:53 19° NNE 03:41:53 19° NNE 03:43:25 10° NNE
Cosmos 2237 Rocket 3.4 03:43:06 40° ENE 03:43:06 40° ENE 03:47:22 10° NE
BREEZE-M DEB (TANK) 4.0 03:55:50 76° WNW 03:56:35 88° NNE 04:01:11 10° ESE
Cosmos 2333 Rocket 4.0 04:04:35 21° N 04:04:35 21° N 04:06:31 10° NNE
Lacrosse 4 Rocket 3.4 04:04:26 27° E 04:04:26 27° E 04:07:21 10° NE
FENGYUN 3A 4.5 04:01:06 10° NNE 04:04:53 45° NNE 04:04:53 45° NNE
Cosmos 1891 Rocket 4.4 04:10:02 78° E 04:10:02 78° E 04:15:58 10° N
Cosmos 2360 Rocket 4.5 04:15:25 12° N 04:15:25 12° N 04:16:04 10° N
Cosmos 1464 Rocket 3.9 04:13:47 58° SSE 04:15:02 79° E 04:21:14 10° N
Gbstr 26 Del rocket 4.4 04:13:50 63° SSW 04:15:03 75° SE 04:23:09 10° ENE
Cosmos 841 Rocket 4.1 04:16:53 50° NE 04:16:53 50° NE 04:20:44 10° NNE
Cosmos 1980 3.9 04:17:06 66° NE 04:17:06 66° NE 04:21:58 10° NNE
Meteor 1-21 Rocket 4.4 04:17:53 37° N 04:20:16 73° ENE 04:26:06 10° SSE
FALCON 9 R/B 4.3 04:24:54 11° S 04:24:54 11° S 04:25:17 10° S
COSMOS 2428 4.1 04:25:09 26° N 04:25:09 26° N 04:27:55 10° NNE
Cosmos 1072 Rocket 4.3 04:22:08 74° SSW 04:22:44 85° W 04:29:08 10° N
Atlas Centaur 2 4.2 04:26:51 21° SSW 04:28:01 22° S 04:33:43 10° SE
ATLAS CENTAUR R/B 2.8 04:31:44 30° ENE 04:31:44 30° ENE 04:33:51 10° NE
METEOR-M 4.0 04:28:19 10° NNE 04:33:42 90° E 04:34:33 64° SSW
Lacrosse 5 rocket 3.9 04:40:11 10° SSE 04:40:11 10° SSE 04:40:14 10° SSE
Cosmos 2084 Rocket 3.8 04:37:18 65° E 04:37:18 65° E 04:41:25 10° SE
Cosmos 1340 4.5 04:42:00 24° SSE 04:42:00 24° SSE 04:43:37 10° SSE
Cosmos 372 Rocket 3.9 04:40:33 72° SSW 04:40:33 72° SSW 04:45:23 10° SSE
ALOS 4.1 04:36:26 10° N 04:37:53 20° N 04:37:53 20° N
USA 215 3.8 04:36:03 10° NE 04:42:05 42° NNW 04:43:15 39° NW
Cosmos 1602 Rocket 4.0 04:40:25 29° N 04:42:36 62° E 04:47:02 10° SSE
ADEOS 3.4 04:38:50 10° NNE 04:44:05 89° WNW 04:47:41 21° SSW
USA 307 3.1 04:44:43 66° ESE 04:44:43 66° ESE 04:48:43 10° ENE
NOSS 0 Rocket 4.0 04:45:40 54° WNW 04:45:44 54° NW 04:51:48 10° NNE
Cosmos 1328 4.3 04:46:59 46° NNE 04:47:50 57° ENE 04:51:40 10° SSE
Nadezhda 4 Rocket 3.8 04:42:40 10° N 04:48:47 78° W 04:54:54 10° S
USA 305 2.9 04:50:49 78° SE 04:50:49 78° SE 04:55:01 10° ENE
USA 308 2.8 04:53:18 76° S 04:53:28 78° SSE 04:57:46 10° ENE
Cosmos 1400 Rocket 2.8 04:53:19 60° S 04:54:02 83° E 04:58:12 10° NNE
SL-4 R/B 2.0 04:55:30 70° ENE 04:55:30 70° ENE 04:59:06 10° ENE
Cosmos 1943 Rocket 3.0 04:51:10 14° NNW 04:55:52 50° ENE 05:01:22 10° SE
Cosmos 2034 Rocket 3.9 04:50:17 10° SSW 04:56:38 73° W 05:03:01 10° N
Meteor 1-16 Rocket 4.2 04:51:41 10° SSW 04:57:37 81° W 05:03:34 10° N
Cosmos 1570 Rocket 3.9 04:57:36 57° W 04:58:04 59° WNW 05:03:17 10° NNE
CZ-4B R/B 4.1 04:57:12 10° S 04:57:25 11° S 04:57:25 11° S
Cosmos 540 Rocket 3.9 05:01:39 40° NW 05:01:39 40° NW 05:05:48 10° N
CZ-2C R/B 4.4 04:57:08 10° ESE 05:01:40 30° ENE 05:06:18 10° N
SJ-12 3.8 04:58:10 10° N 05:02:20 80° WNW 05:04:11 32° SSW
USA 306 2.7 05:02:36 71° WSW 05:03:02 89° NW 05:07:18 10° ENE
Cosmos 2298 Rocket 3.9 05:00:29 25° NNW 05:03:38 85° WSW 05:08:58 10° SSE
NOSS 3-2 (A) 3.4 05:00:28 19° SSW 05:04:39 80° SE 05:11:09 10° NE
Cosmos 1814 Rocket 3.9 05:03:50 49° WSW 05:04:45 57° WNW 05:09:50 10° NNE
Cosmos 2369 Rocket 3.5 05:00:58 10° NNW 05:06:10 37° NE 05:11:20 10° ESE
Cosmos 1125 Rocket 3.7 05:01:52 14° NNW 05:06:24 72° ENE 05:11:42 10° SSE
Envisat 4.2 05:01:38 10° NNE 05:06:30 44° E 05:11:19 10° S
Cosmos 1634 Rocket 4.4 05:00:54 10° S 05:06:58 65° E 05:13:06 10° NNE
CZ-4B R/B 2.6 05:07:44 10° NNE 05:11:25 83° ESE 05:15:12 10° SSW
COSMO-SKYMED 1 2.5 05:07:13 10° S 05:11:29 58° W 05:12:33 44° NW
CZ-4B R/B 4.2 05:08:54 10° N 05:13:14 49° WNW 05:13:35 48° W
PSLV R/B 4.0 05:09:27 10° SSE 05:13:34 80° ENE 05:17:46 10° NNW
Cosmos 2278 Rocket 3.9 05:18:36 16° SW 05:18:36 16° SW 05:20:13 10° SSW
USA 267 4.5 05:11:41 10° S 05:16:23 21° SW 05:16:23 21° SW
Cosmos 2228 3.9 05:13:05 10° S 05:17:11 50° E 05:21:18 10° NNE
SL-16 R/B 2.1 05:12:10 10° SSW 05:17:49 89° SE 05:23:32 10° NNE
NOSS 3-2 (C) 3.8 05:12:49 10° SSW 05:18:19 61° ESE 05:24:39 10° NE
CZ-2C R/B 3.5 05:19:17 14° SSW 05:20:16 15° SSW 05:22:39 10° SSE
ERBS 4.3 05:18:30 10° S 05:21:18 26° SE 05:24:07 10° ENE
Cosmos 972 Rocket 4.2 05:16:00 10° SSW 05:22:17 82° WNW 05:27:54 10° NNE
Cosmos 2219 Rocket 3.9 05:23:37 15° NNW 05:23:37 15° NNW 05:26:08 10° N
ERS-2 2.1 05:20:37 10° S 05:24:11 57° WSW 05:25:09 41° NW
Cosmos 2026 Rocket 4.0 05:18:09 10° N 05:24:33 86° W 05:30:56 10° S
ATLAS 5 CENTAUR R/B 3.4 05:25:47 19° SW 05:25:47 19° SW 05:28:55 10° S
CENTAUR R/B 2.7 05:19:43 10° SSW 05:25:32 73° SE 05:32:32 10° NE
Cosmos 2208 Rocket 4.4 05:23:25 25° WSW 05:26:07 44° WNW 05:31:18 10° N
Cosmos 2237 Rocket 2.9 05:24:59 31° WNW 05:26:11 34° NW 05:31:20 10° NNE
H-2A R/B 2.5 05:24:40 10° N 05:28:24 80° WNW 05:32:10 10° SSW
FALCON 9 DEB 3.6 05:30:00 25° SSW 05:31:33 51° SE 05:34:37 10° ENE
Meteor PRIRODA 3.6 05:29:30 10° N 05:33:04 56° WNW 05:36:37 10° SSW
Cosmos 1606 Rocket 3.8 05:29:20 10° S 05:33:36 69° E 05:37:55 10° NNE
FALCON 9 DEB 3.0 05:38:25 25° SW 05:40:01 69° SSE 05:43:07 10° ENE
Lacrosse 4 Rocket 2.2 05:40:48 27° W 05:42:09 34° NW 05:46:10 10° NNE
Meteor 1-11 4.2 05:39:52 10° NNW 05:45:20 56° W 05:50:46 10° S
Cosmos 1300 2.6 05:41:46 10° SSW 05:45:32 64° W 05:49:20 10° N
Cosmos 2333 Rocket 4.1 05:46:36 11° NW 05:46:59 11° NNW 05:48:36 10° NNW
SAR-Lupe-4 4.0 05:44:28 10° S 05:47:50 39° W 05:50:19 16° NW
Cosmos 1315 Rocket 2.6 05:46:12 10° SSW 05:50:05 69° WNW 05:54:01 10° N
deb Chang Zheng 4 4.1 05:46:52 10° N 05:50:44 35° WNW 05:54:34 10° SW
[s.n.47389] 4.2 05:48:45 10° SSW 05:51:04 31° SE 05:53:26 10° ENE
Cosmos 2142 Rocket 4.5 05:44:47 10° S 05:51:07 84° W 05:57:23 10° N
[s.n.47399] 4.2 05:48:46 10° SSW 05:51:07 31° SE 05:53:28 10° ENE
[s.n.47393] 4.2 05:48:49 10° SSW 05:51:09 31° SE 05:53:30 10° ENE
[s.n.47353] 4.2 05:48:53 10° SSW 05:51:13 31° SE 05:53:34 10° ENE
[s.n.47355] 4.2 05:48:56 10° SSW 05:51:16 31° SE 05:53:38 10° ENE
[s.n.47365] 4.2 05:48:59 10° SSW 05:51:19 31° SE 05:53:41 10° ENE
[s.n.47383] 4.2 05:49:04 10° SSW 05:51:25 31° SE 05:53:46 10° ENE
[s.n.47400] 4.2 05:49:03 10° SSW 05:51:26 31° SE 05:53:50 10° ENE
[s.n.47378] 4.2 05:49:09 10° SSW 05:51:31 31° SE 05:53:52 10° ENE
[s.n.47395] 4.2 05:49:12 10° SSW 05:51:33 31° SE 05:53:54 10° ENE
[s.n.47379] 4.2 05:49:19 10° SSW 05:51:40 31° SE 05:54:01 10° ENE
[s.n.47370] 4.2 05:49:19 10° SSW 05:51:40 31° SE 05:54:01 10° ENE
[s.n.47351] 4.2 05:49:20 10° SSW 05:51:43 32° SE 05:54:07 10° ENE
[s.n.47394] 4.2 05:49:25 10° SSW 05:51:46 31° SE 05:54:09 10° ENE
[s.n.47354] 4.2 05:49:29 10° SSW 05:51:50 31° SE 05:54:12 10° ENE
[s.n.47360] 4.2 05:49:31 10° SSW 05:51:52 31° SE 05:54:14 10° ENE
[s.n.47369] 4.2 05:49:36 10° SSW 05:51:57 31° SE 05:54:19 10° ENE
[s.n.47406] 4.2 05:49:38 10° SSW 05:51:59 31° SE 05:54:21 10° ENE
[s.n.47384] 4.2 05:49:41 10° SSW 05:52:02 31° SE 05:54:25 10° ENE
[s.n.47356] 4.2 05:49:44 10° SSW 05:52:05 31° SE 05:54:27 10° ENE
[s.n.47407] 4.2 05:49:47 10° SSW 05:52:08 32° SE 05:54:31 10° ENE
[s.n.47385] 4.2 05:49:47 10° SSW 05:52:10 32° SE 05:54:36 10° ENE
[s.n.47358] 4.2 05:49:54 10° SSW 05:52:15 32° SE 05:54:38 10° ENE
[s.n.47398] 4.2 05:49:56 10° SSW 05:52:17 32° SE 05:54:40 10° ENE
[s.n.47361] 4.2 05:50:01 10° SSW 05:52:22 32° SE 05:54:44 10° ENE
[s.n.47392] 4.2 05:50:02 10° SSW 05:52:24 32° SE 05:54:46 10° ENE
[s.n.47382] 4.1 05:50:06 10° SSW 05:52:27 32° SE 05:54:50 10° ENE
[s.n.47359] 4.2 05:50:07 10° SSW 05:52:30 32° SE 05:54:55 10° ENE
[s.n.47401] 4.1 05:50:14 10° SSW 05:52:35 32° SE 05:54:58 10° ENE
[s.n.47380] 4.2 05:50:12 10° SSW 05:52:36 32° SE 05:55:02 10° ENE
[s.n.47386] 4.1 05:50:20 10° SSW 05:52:42 32° SE 05:55:05 10° ENE
[s.n.47408] 4.2 05:50:20 10° SSW 05:52:44 32° SE 05:55:10 10° ENE
[s.n.47396] 4.1 05:50:26 10° SSW 05:52:47 32° SE 05:55:11 10° ENE
[s.n.47391] 4.1 05:50:28 10° SSW 05:52:50 32° SE 05:55:13 10° ENE
[s.n.47402] 4.1 05:50:32 10° SSW 05:52:54 32° SE 05:55:16 10° ENE
[s.n.47404] 4.1 05:50:35 10° SSW 05:52:57 32° SE 05:55:20 10° ENE
[s.n.47403] 4.1 05:50:38 10° SSW 05:53:00 32° SE 05:55:23 10° ENE
[s.n.47381] 4.1 05:50:41 10° SSW 05:53:04 32° SE 05:55:27 10° ENE
[s.n.47372] 4.1 05:50:45 10° SSW 05:53:08 32° SE 05:55:31 10° ENE
[s.n.47405] 4.1 05:50:47 10° SSW 05:53:09 32° SE 05:55:33 10° ENE
[s.n.47368] 4.1 05:50:52 10° SSW 05:53:14 32° SE 05:55:38 10° ENE
[s.n.47350] 4.1 05:50:55 10° SSW 05:53:17 32° SE 05:55:40 10° ENE
[s.n.47349] 4.1 05:50:54 10° SSW 05:53:19 33° SE 05:55:45 10° ENE
[s.n.47367] 4.1 05:50:59 10° SSW 05:53:22 33° SE 05:55:47 10° ENE
[s.n.47373] 4.1 05:51:01 10° SSW 05:53:25 33° SE 05:55:52 10° ENE
[s.n.47377] 4.1 05:51:04 10° SSW 05:53:28 33° SE 05:55:55 10° ENE
[s.n.47371] 4.1 05:51:07 10° SSW 05:53:31 33° SE 05:55:58 10° ENE
[s.n.47362] 4.1 05:51:09 10° SSW 05:53:34 33° SE 05:56:01 10° ENE
[s.n.47363] 4.1 05:51:13 10° SSW 05:53:37 33° SE 05:56:04 10° ENE
[s.n.47374] 4.1 05:51:18 10° SSW 05:53:41 33° SE 05:56:06 10° ENE
[s.n.47357] 4.1 05:51:22 10° SSW 05:53:46 33° SE 05:56:10 10° ENE
[s.n.47390] 4.1 05:51:26 10° SSW 05:53:49 33° SE 05:56:13 10° ENE
[s.n.47387] 4.1 05:51:28 10° SSW 05:53:51 33° SE 05:56:16 10° ENE
[s.n.47375] 4.1 05:51:29 10° SSW 05:53:52 33° SE 05:56:16 10° ENE
[s.n.47376] 4.1 05:51:29 10° SSW 05:53:54 33° SE 05:56:21 10° ENE
[s.n.47366] 4.1 05:51:38 10° SSW 05:54:02 33° SE 05:56:26 10° ENE
[s.n.47352] 4.1 05:51:41 10° SSW 05:54:05 33° SE 05:56:30 10° ENE
[s.n.47364] 4.1 05:51:45 10° SSW 05:54:09 33° SE 05:56:34 10° ENE
[s.n.47388] 4.1 05:51:48 10° SSW 05:54:12 33° SE 05:56:37 10° ENE
[s.n.47397] 4.1 05:51:54 10° SSW 05:54:17 33° SE 05:56:41 10° ENE
Cosmos 2297 4.2 05:50:12 12° NW 05:55:02 41° WSW 06:00:20 10° S
MOS 1 Rocket 4.1 05:52:59 10° SSW 05:57:14 30° W 06:01:17 10° NNW
Cosmos 1346 Rocket 3.3 05:54:41 10° NNW 05:58:22 36° W 06:02:01 10° SSW
USA 238 DEB 3.7 05:53:58 10° SW 06:00:29 61° NW 06:07:22 10° NE
Cosmos 836 Rocket 4.5 05:55:17 10° SSW 06:00:29 63° WNW 06:05:42 10° NNE
USA 238 3.7 05:54:04 10° SW 06:00:35 62° NW 06:07:28 10° NE
Cosmos 1758 Rocket 4.2 05:59:08 10° NNW 06:03:13 35° W 06:07:14 10° SSW
NOAA 12 4.4 05:59:17 10° NNE 06:04:35 73° ESE 06:09:53 10° S
Cosmos 1689 Rocket 3.4 06:04:22 10° SSW 06:06:37 20° W 06:07:23 18° WNW
ATLAS CENTAUR R/B 2.5 06:07:56 16° WNW 06:09:24 20° NW 06:12:11 10° N
Cosmos 1441 Rocket 3.9 06:06:03 10° N 06:09:57 58° ENE 06:13:48 10° SSE
BREEZE M DEB (TANK) 2.0 06:11:52 10° WSW 06:14:10 79° SSE 06:19:17 10° ENE
SL-19 R/B 3.9 06:11:03 10° NNE 06:14:47 78° WNW 06:18:00 10° SSW
MOS 1-B 4.3 06:11:58 10° NNE 06:17:46 80° WNW 06:23:32 10° SSW
Cosmos 1726 Rocket 3.6 06:13:42 10° SSW 06:17:54 51° WNW 06:22:08 10° N
YAOGAN 6 3.4 06:15:18 10° N 06:18:36 30° WNW 06:21:52 10° SW
Cosmos 1892 2.6 06:15:02 10° NNW 06:18:52 71° W 06:22:42 10° S
Cosmos 1184 Rocket 3.9 06:16:11 10° N 06:19:21 45° ENE 06:22:30 10° SSE
Spot 2 3.9 06:15:25 10° N 06:19:25 63° WNW 06:23:30 10° SSW
Cosmos 2058 Rocket 3.0 06:15:28 10° SSW 06:19:52 80° W 06:24:21 10° N
Cosmos 1603 3.9 06:15:25 10° SSW 06:21:00 78° ESE 06:26:41 10° NNE
GEOS 3 Rocket 4.1 06:16:43 10° SSE 06:21:52 47° WSW 06:27:05 10° NW
FALCON 9 DEB 3.0 06:19:16 10° WSW 06:22:19 53° NNW 06:25:22 10° NE
USA 215 4.2 06:18:25 10° ENE 06:24:13 36° N 06:30:02 10° WNW
USA 307 3.6 06:20:53 11° W 06:24:45 38° NNW 06:28:43 10° NE
CZ-4B DEB 4.3 06:23:19 10° N 06:28:45 56° WNW 06:34:09 10° SW
In-Cosmos 22 Rocket 4.2 06:23:57 10° NNW 06:29:16 55° W 06:34:28 10° S
Cosmos 2279 Rocket 4.2 06:23:57 10° SSW 06:30:00 50° WNW 06:36:06 10° N
Cosmos 2292 Rocket 3.4 06:28:09 10° NNW 06:30:59 35° W 06:34:13 10° SSW
USA 305 3.7 06:27:08 10° W 06:31:04 35° NNW 06:35:00 10° NE
FALCON 9 DEB 3.1 06:28:01 10° WSW 06:31:05 52° NNW 06:34:10 10° NE
Cosmos 1408 2.5 06:29:01 10° NNW 06:32:36 67° W 06:36:11 10° S
USA 308 3.7 06:29:49 10° W 06:33:48 36° NNW 06:37:47 10° NE
Cosmos 2098 Rocket 4.4 06:30:16 10° NNW 06:34:41 25° W 06:38:22 10° SW
Okean O Rocket 1.5 06:30:26 10° N 06:34:48 77° WNW 06:39:08 10° SSW
SL-4 R/B 2.6 06:31:20 10° WNW 06:35:01 40° N 06:39:00 10° ENE
SMAP 3.2 06:32:18 10° N 06:36:52 55° WNW 06:41:24 10° SSW
Cosmos 2263 4.3 06:33:10 10° NNW 06:38:46 65° WSW 06:44:24 10° SSE
H-2A R/B 4.4 06:34:09 10° NNE 06:38:55 30° E 06:43:40 10° SSE
Cosmos 1943 Rocket 3.1 06:34:35 10° NW 06:39:20 28° WSW 06:44:03 10° SSW
Iridium 4 Rocket 4.0 06:34:43 10° S 06:40:32 83° E 06:46:29 10° N
H-2A R/B 2.9 06:36:42 10° N 06:41:03 48° WNW 06:45:22 10° SW
CZ-2C R/B 3.1 06:36:49 10° SSW 06:41:47 42° W 06:46:54 10° NNW
